VE2DEW-13 Weather Reports


Display with metric or nautical units.
time (UTC)temp
F
wind
direction
speed
MPH
gust
MPH
rain 1hr
in
rain 24hr
in
rain mn
in
humidity
%
barometer
mb
20260510084522 50 155 5.0 11.0 0.00 0.00 0.00 90 1006.9
20260510083034 50 50 2.0 12.0 0.00 0.00 0.00 90 1006.7
20260510081507 50 211 1.0 16.0 0.00 0.00 0.00 89 1006.9
20260510080011 50 165 3.0 9.0 0.00 0.00 0.00 89 1006.9
20260510074516 51 231 3.0 10.0 0.00 0.00 0.00 89 1006.7
20260510073029 51 229 3.0 13.0 0.00 0.00 0.00 88 1006.6
20260510071535 51 201 2.0 12.0 0.00 0.00 0.00 89 1006.5
20260510070022 51 201 3.0 16.0 0.00 0.00 0.00 88 1006.5
20260510064523 51 221 6.0 15.0 0.00 0.00 0.00 89 1006.6
20260510063018 51 345 1.0 8.0 0.00 0.00 0.00 89 1006.2
20260510061524 51 219 2.0 14.0 0.00 0.00 0.00 88 1006.2
20260510060033 51 212 3.0 10.0 0.00 0.00 0.00 87 1006.3
20260510054515 51 230 5.0 16.0 0.00 0.00 0.00 86 1006.5
20260510053015 51 199 4.0 11.0 0.00 0.00 0.00 85 1006.4
20260510051528 51 191 6.0 15.0 0.00 0.00 0.00 85 1006.6
20260510050023 51 209 3.0 14.0 0.00 0.00 0.00 85 1007.0
20260510044529 51 252 3.0 13.0 0.00 0.00 0.00 85 1006.7
20260510043011 50 124 2.0 4.0 0.00 0.00 0.00 86 1006.6
20260510041517 50 332 1.0 7.0 0.00 0.00 0.00 86 1006.3
20260510040019 50 20 1.0 5.0 0.00 0.00 0.00 86 1006.2
20260510034524 50 203 2.0 5.0 0.00 0.00 0.00 87 1006.2
20260510033030 50 48 1.0 6.0 0.00 0.00 0.00 87 1006.2
20260510031528 50 122 2.0 8.0 0.00 0.00 0.00 86 1006.6
20260510030016 50 122 1.0 11.0 0.00 0.00 0.00 86 1006.4
20260510024523 50 209 2.0 10.0 0.00 0.00 0.00 86 1006.7
20260510023023 50 148 3.0 15.0 0.00 0.00 0.00 85 1007.0
20260510021532 51 219 7.0 19.0 0.00 0.00 0.00 84 1007.3
20260510020028 51 149 5.0 17.0 0.00 0.00 0.00 84 1007.2
20260510014522 51 244 4.0 9.0 0.00 0.00 0.00 84 1007.1
20260510013023 50 231 2.0 8.0 0.00 0.00 0.00 85 1007.2
20260510011534 50 295 2.0 10.0 0.00 0.00 0.00 85 1007.3
20260510010011 51 165 2.0 9.0 0.00 0.00 0.00 84 1007.1
20260510004524 51 88 1.0 9.0 0.00 0.00 0.00 84 1007.1
20260510003020 51 146 2.0 5.0 0.00 0.00 0.00 83 1007.2
20260510001506 51 43 1.0 6.0 0.00 0.00 0.00 81 1007.3
20260510000008 52 72 2.0 10.0 0.00 0.00 0.00 80 1007.2
20260509234512 52 251 2.0 8.0 0.00 0.00 0.00 77 1007.2
20260509233017 53 238 3.0 10.0 0.00 0.00 0.00 76 1007.3
20260509231527 53 119 2.0 7.0 0.00 0.00 0.00 74 1007.5
20260509230024 54 153 2.0 9.0 0.00 0.00 0.00 72 1007.4
20260509224506 54 228 2.0 10.0 0.00 0.00 0.00 73 1007.5
20260509223018 55 148 3.0 13.0 0.00 0.00 0.00 70 1007.5
20260509221528 55 180 2.0 11.0 0.00 0.00 0.00 69 1007.4
20260509220022 56 141 3.0 19.0 0.00 0.00 0.00 69 1007.5
20260509214525 56 231 3.0 9.0 0.00 0.00 0.00 68 1007.8
20260509213007 58 37 6.0 11.0 0.00 0.00 0.00 64 1007.6
20260509211511 58 167 4.0 10.0 0.00 0.00 0.00 64 1007.6
20260509210018 59 145 3.0 11.0 0.00 0.00 0.00 61 1007.8
20260509204520 59 120 5.0 14.0 0.00 0.00 0.00 59 1008.0
20260509203024 59 104 3.0 11.0 0.00 0.00 0.00 58 1008.1
20260509201510 59 52 4.0 13.0 0.00 0.00 0.00 57 1008.2
20260509200014 60 222 4.0 15.0 0.00 0.00 0.00 54 1008.3
20260509194520 59 219 6.0 22.0 0.00 0.00 0.00 53 1008.4
20260509193023 59 357 7.0 16.0 0.00 0.00 0.00 55 1008.3
20260509191525 59 153 5.0 20.0 0.00 0.00 0.00 55 1008.5
20260509190015 59 179 4.0 23.0 0.00 0.00 0.00 55 1008.5
20260509184527 59 209 10.0 22.0 0.00 0.00 0.00 53 1008.6
20260509183027 60 205 6.0 17.0 0.00 0.00 0.00 50 1008.7
20260509181523 59 237 7.0 20.0 0.00 0.00 0.00 47 1009.0
20260509180028 60 108 5.0 20.0 0.00 0.00 0.00 48 1009.3
20260509174510 60 212 4.0 18.0 0.00 0.00 0.00 44 1009.6
20260509173017 61 131 7.0 21.0 0.00 0.00 0.00 40 1009.7
20260509171523 61 235 4.0 13.0 0.00 0.00 0.00 38 1009.7
20260509170032 61 238 5.0 11.0 0.00 0.00 0.00 35 1009.9
20260509164527 62 162 5.0 15.0 0.00 0.00 0.00 35 1010.0
20260509163013 60 218 4.0 12.0 0.00 0.00 0.00 38 1010.2
20260509161518 60 93 3.0 10.0 0.00 0.00 0.00 41 1010.4
20260509160005 59 209 2.0 7.0 0.00 0.00 0.00 45 1010.6
20260509154508 60 222 3.0 11.0 0.00 0.00 0.00 41 1010.8
20260509153010 60 310 1.0 11.0 0.00 0.00 0.00 43 1011.1
20260509151515 59 136 3.0 9.0 0.00 0.00 0.00 42 1011.3
20260509150027 58 110 2.0 12.0 0.00 0.00 0.00 44 1011.3
20260509144506 57 68 3.0 10.0 0.00 0.00 0.00 45 1011.4
20260509143012 57 39 2.0 8.0 0.00 0.00 0.00 46 1011.6
20260509141519 55 89 3.0 12.0 0.00 0.00 0.00 49 1011.6
20260509140026 55 132 2.0 8.0 0.00 0.00 0.00 51 1011.7
20260509134525 54 274 3.0 9.0 0.00 0.00 0.00 52 1011.6
20260509133006 53 96 2.0 9.0 0.00 0.00 0.00 53 1011.8
20260509131509 52 245 4.0 12.0 0.00 0.00 0.00 55 1012.0
20260509130010 51 198 3.0 11.0 0.00 0.00 0.00 55 1012.0
20260509124527 51 43 1.0 8.0 0.00 0.00 0.00 58 1012.2
20260509123029 50 240 2.0 9.0 0.00 0.00 0.00 58 1012.2
20260509121505 50 204 2.0 9.0 0.00 0.00 0.00 58 1012.3
20260509120008 49 41 1.0 10.0 0.00 0.00 0.00 60 1012.1
20260509114514 48 106 2.0 8.0 0.00 0.01 0.00 64 1012.3
20260509113020 47 271 1.0 5.0 0.00 0.01 0.00 65 1012.3
20260509111522 46 44 1.0 5.0 0.00 0.01 0.00 67 1012.2
20260509110017 45 116 1.0 5.0 0.00 0.01 0.00 67 1012.2
20260509104513 44 210 1.0 8.0 0.00 0.01 0.00 70 1012.2
20260509103012 43 222 1.0 5.0 0.00 0.01 0.00 72 1012.0
20260509101523 42 68 0.0 4.0 0.00 0.01 0.00 74 1011.8
20260509100021 40 117 0.0 2.0 0.00 0.01 0.00 78 1011.5
20260509094525 38 80 0.0 1.0 0.00 0.01 0.00 79 1011.6
20260509093018 38 46 0.0 1.0 0.00 0.01 0.00 79 1011.5
20260509091516 38 46 0.0 1.0 0.00 0.01 0.00 78 1011.5
20260509090024 38 124 0.0 1.0 0.00 0.01 0.00 78 1011.5